This is the latest recevied weather packets stored in our database for station/object KJ5IIV. If no packets are shown the sender has not sent any weather packets the latest 10 day(s).
| Time | Temp. | Humidity | Pressure | Rain* | Wind** | Luminosity | Snow |
|---|---|---|---|---|---|---|---|
| 1777998838 | 24.44° C | 77% | 1006.3 hPa | 0 mm | - | 481 W/m² | - |
| 1777998536 | 24.44° C | 79% | 1006.3 hPa | 0 mm | - | 1368 W/m² | - |
| 1777998231 | 23.89° C | 78% | 1006.4 hPa | 0 mm | - | 1368 W/m² | - |
| 1777997929 | 23.89° C | 78% | 1006.5 hPa | 0 mm | - | 1368 W/m² | - |
| 1777997626 | 23.89° C | 78% | 1006.8 hPa | 0 mm | - | 212 W/m² | - |
| 1777997323 | 23.89° C | 78% | 1006.6 hPa | 0 mm | - | 233 W/m² | - |
| 1777997021 | 23.89° C | 78% | 1006.6 hPa | 0 mm | - | 298 W/m² | - |
| 1777996717 | 23.89° C | 78% | 1006.9 hPa | 0 mm | - | 1368 W/m² | - |
| 1777996413 | 24.44° C | 77% | 1007 hPa | 0 mm | - | - | - |
| 1777996110 | 23.89° C | 78% | 1006.8 hPa | 0 mm | - | - | - |
| 1777995806 | 23.89° C | 79% | 1006.6 hPa | 0 mm | - | 1368 W/m² | - |
| 1777995503 | 23.33° C | 79% | 1006.5 hPa | 0 mm | - | - | - |
| 1777995200 | 23.33° C | 79% | 1006.6 hPa | 0 mm | - | - | - |
| 1777994897 | 23.33° C | 80% | 1006.7 hPa | 0 mm | - | - | - |
| 1777994594 | 23.33° C | 80% | 1006.5 hPa | 0 mm | - | - | - |
| 1777994294 | 23.33° C | 80% | 1006.6 hPa | 0 mm | - | - | - |
| 1777993991 | 23.33° C | 81% | 1006.5 hPa | 0 mm | - | - | - |
| 1777993688 | 22.78° C | 81% | 1006.4 hPa | 0 mm | - | - | - |
| 1777993385 | 22.78° C | 82% | 1006.5 hPa | 0 mm | - | - | - |
| 1777993085 | 22.78° C | 83% | 1006.6 hPa | 0 mm | - | - | - |
| 1777992784 | 22.22° C | 83% | 1006.6 hPa | 0 mm | - | 0 W/m² | - |
| 1777992481 | 22.22° C | 83% | 1006.6 hPa | 0 mm | - | 152 W/m² | - |
| 1777992179 | 22.22° C | 84% | 1006.5 hPa | 0 mm | - | 1368 W/m² | - |
| 1777991875 | 22.22° C | 84% | 1006.7 hPa | 0 mm | - | 1368 W/m² | - |
| 1777991573 | 22.22° C | 84% | 1006.4 hPa | 0 mm | - | 1368 W/m² | - |
* Rain latest hour (hover to see other rain measurements)
** Current wind speed in m/s (hover to see current wind gust speed)